Language: 


Des rapports , des résumés tant et plus, au choix de chacun....


Données statistiques de la station
Quotidien Rapport Février 11, 2017 Unités:  Anglais    Métrique   les deux
« Précédent Jour
Suivant Jour »
Quotidien Hebdomadaire Mensuel Annuel Actuel
  Haut: Bas: Moyen:
Température: 35.4 °F 32 °F 33.6 °F
Pt de rosée: 34.3 °F 31.5 °F 32.9 °F
Humidité: 98 % 0 % 97 %
Vitesse du vent: 9.8 mph 0 mph 5 mph
Rafales: 12.3 mph - -
Vent:- - East
Pression: 30.1 in 0 in -
Précipitation: 0 in    
Historical Graphs
 
 
Données statistiques pour Février 11, 2017
Heure Température Point de rosée Pression Vent Vitesse du vent Refales Humidité Pluie (taux horaire)
00:04 32.2 °F 31.5 °F 30.1 in NNW 4.9 mph 6.5 mph 97 % 0 in
00:09 32.2 °F 31.5 °F 30.1 in North 1.1 mph 6.5 mph 97 % 0 in
00:15 32.2 °F 31.6 °F 30.1 in NNE 4 mph 6.3 mph 98 % 0 in
00:20 32.2 °F 31.5 °F 30.1 in NNE 2.7 mph 6.5 mph 97 % 0 in
00:25 32.2 °F 31.5 °F 30.1 in North 4.9 mph 7.2 mph 97 % 0 in
00:30 32.2 °F 31.5 °F 30.1 in NE 5.8 mph 7.2 mph 97 % 0 in
00:35 32.2 °F 31.5 °F 30.1 in NNE 4.3 mph 6.5 mph 97 % 0 in
00:40 32.2 °F 31.5 °F 30.1 in North 3.6 mph 7.2 mph 97 % 0 in
00:45 32.2 °F 31.5 °F 30.1 in ENE 5.4 mph 7.2 mph 97 % 0 in
00:50 32.2 °F 31.5 °F 30.1 in North 3.8 mph 6.5 mph 97 % 0 in
00:55 32.2 °F 31.5 °F 30.1 in NE 5.4 mph 6.5 mph 97 % 0 in
01:00 32.2 °F 31.5 °F 30.1 in NE 5.8 mph 6.5 mph 97 % 0 in
01:05 32.2 °F 31.5 °F 30.1 in NE 4.9 mph 6.5 mph 97 % 0 in
01:10 32.2 °F 31.5 °F 30.1 in NE 5.6 mph 6.3 mph 97 % 0 in
01:15 32.2 °F 31.5 °F 30.1 in NE 4.3 mph 6 mph 97 % 0 in
01:20 32.2 °F 31.5 °F 30.1 in NE 4 mph 6.3 mph 97 % 0 in
01:25 32.2 °F 31.5 °F 30.1 in North 5.6 mph 6.3 mph 97 % 0 in
01:30 32.2 °F 31.5 °F 30.1 in North 5.6 mph 6.3 mph 97 % 0 in
01:35 32.2 °F 31.5 °F 30.1 in NNE 3.8 mph 6.3 mph 97 % 0 in
01:40 32.2 °F 31.5 °F 30.1 in NNE 4.7 mph 6 mph 97 % 0 in
01:45 32.2 °F 31.5 °F 30.1 in NNE 4 mph 6.5 mph 97 % 0 in
01:50 32.2 °F 31.5 °F 30.1 in NNE 4.9 mph 6.5 mph 97 % 0 in
01:55 32.2 °F 31.6 °F 30.1 in NNE 3.8 mph 6.5 mph 98 % 0 in
02:02 32 °F 31.6 °F 0 in Calm     0 % 0 in
02:07 32.2 °F 31.6 °F 30.1 in North 2.9 mph 5.4 mph 98 % 0 in
02:12 32.2 °F 31.6 °F 30.1 in NNE 4 mph 6.5 mph 98 % 0 in
02:17 32.2 °F 31.6 °F 30.1 in NNE 3.8 mph 6.5 mph 98 % 0 in
02:22 32.2 °F 31.6 °F 30.1 in NE 4.3 mph 5.8 mph 98 % 0 in
02:27 32.2 °F 31.6 °F 30.1 in NNE 4.3 mph 6 mph 98 % 0 in
02:32 32.2 °F 31.6 °F 30.1 in NE 3.6 mph 6 mph 98 % 0 in
02:37 32.2 °F 31.6 °F 30.1 in NNE 3.8 mph 5.6 mph 98 % 0 in
02:42 32.2 °F 31.6 °F 30.1 in NNE 4 mph 6.3 mph 98 % 0 in
02:47 32.2 °F 31.6 °F 30.1 in NNE 4.7 mph 6.3 mph 98 % 0 in
02:52 32.2 °F 31.6 °F 30.1 in NNE 4.7 mph 5.6 mph 98 % 0 in
02:57 32.2 °F 31.6 °F 30.1 in NNE 4.3 mph 5.6 mph 98 % 0 in
03:02 32.4 °F 31.8 °F 30.1 in North 1.3 mph 5.4 mph 98 % 0 in
03:07 32.4 °F 31.8 °F 30.1 in NNE 3.4 mph 4.2 mph 98 % 0 in
03:12 32.4 °F 31.8 °F 30.1 in NNE 4.7 mph 5.4 mph 98 % 0 in
03:17 32.4 °F 31.8 °F 30.1 in NNE 4.9 mph 5.4 mph 98 % 0 in
03:22 32.4 °F 31.8 °F 30.1 in NNE 3.6 mph 5.6 mph 98 % 0 in
03:27 32.4 °F 31.8 °F 30.1 in North 3.1 mph 6 mph 98 % 0 in
03:32 32.4 °F 31.8 °F 30.1 in NE 2.9 mph 6 mph 98 % 0 in
03:37 32.4 °F 31.8 °F 30.1 in North 2.7 mph 5.8 mph 98 % 0 in
03:42 32.4 °F 31.8 °F 30.1 in Calm   5.4 mph 98 % 0 in
03:47 32.4 °F 31.8 °F 30.1 in North 4.9 mph 6 mph 98 % 0 in
03:52 32.4 °F 31.8 °F 30.1 in NNE 1.1 mph 6 mph 98 % 0 in
03:57 32.4 °F 31.8 °F 30.1 in North 4.3 mph 5.4 mph 98 % 0 in
04:02 32.5 °F 32 °F 30.1 in NE 3.4 mph 4.9 mph 98 % 0 in
04:07 32.5 °F 32 °F 30.1 in North 3.6 mph 5.6 mph 98 % 0 in
04:12 32.5 °F 32 °F 30.1 in NE 4.3 mph 5.8 mph 98 % 0 in
04:17 32.5 °F 32 °F 30.1 in NE 0.9 mph 5.8 mph 98 % 0 in
04:22 32.5 °F 32 °F 30.1 in ENE 5.4 mph 5.8 mph 98 % 0 in
04:27 32.5 °F 32 °F 30.1 in NE 4 mph 6.3 mph 98 % 0 in
04:32 32.5 °F 32 °F 30.1 in NNE 6.5 mph 6.5 mph 98 % 0 in
04:37 32.5 °F 32 °F 30.1 in NE 4.9 mph 6.5 mph 98 % 0 in
04:42 32.5 °F 32 °F 30.1 in NNE 5.4 mph 6.7 mph 98 % 0 in
04:47 32.5 °F 32 °F 30.1 in NE 6 mph 6.9 mph 98 % 0 in
04:52 32.5 °F 32 °F 30.1 in NNE 5.6 mph 6.9 mph 98 % 0 in
04:57 32.5 °F 32 °F 30.1 in NNE 4 mph 6.5 mph 98 % 0 in
05:02 32.5 °F 32 °F 30.1 in NNE 4.9 mph 8.1 mph 98 % 0 in
05:07 32.5 °F 32 °F 30.1 in NNE 2.9 mph 8.7 mph 98 % 0 in
05:13 32.5 °F 32 °F 30.1 in ENE 4 mph 8.7 mph 98 % 0 in
05:18 32.5 °F 32 °F 30.1 in NE 4.3 mph 7.4 mph 98 % 0 in
05:23 32.5 °F 32 °F 30.1 in NE 4.9 mph 6.3 mph 98 % 0 in
05:28 32.5 °F 32 °F 30.1 in North 4 mph 6.3 mph 98 % 0 in
05:33 32.5 °F 32 °F 30.1 in NE 4.3 mph 6.3 mph 98 % 0 in
05:38 32.5 °F 32 °F 30.1 in NNE 4 mph 6.5 mph 98 % 0 in
05:43 32.5 °F 32 °F 30.1 in NE 4 mph 6.5 mph 98 % 0 in
05:48 32.5 °F 32 °F 30.1 in NNE 4.3 mph 6.3 mph 98 % 0 in
05:53 32.7 °F 32.2 °F 30.1 in NE 5.4 mph 6.3 mph 98 % 0 in
05:58 32.7 °F 32.2 °F 30.1 in NNE 3.8 mph 6.3 mph 98 % 0 in
06:03 32.7 °F 32.2 °F 30.1 in NNE 4.9 mph 6 mph 98 % 0 in
06:08 32.7 °F 32.2 °F 30.1 in NNE 4.7 mph 6 mph 98 % 0 in
06:13 32.7 °F 32.2 °F 30.1 in North 3.1 mph 6 mph 98 % 0 in
06:18 32.7 °F 32.2 °F 30.1 in NE 2.9 mph 6 mph 98 % 0 in
06:23 32.7 °F 32.2 °F 30.1 in NNE 3.6 mph 6 mph 98 % 0 in
06:28 32.7 °F 32.2 °F 30.1 in NE 4.9 mph 5.4 mph 98 % 0 in
06:33 32.7 °F 32.2 °F 30.1 in North 4.7 mph 5.6 mph 98 % 0 in
06:38 32.7 °F 32.2 °F 30.1 in NE 4.9 mph 5.8 mph 98 % 0 in
06:43 32.7 °F 32.2 °F 30.1 in NNE 4 mph 6.3 mph 98 % 0 in
06:48 32.7 °F 32.2 °F 30.1 in NE 5.6 mph 6.3 mph 98 % 0 in
06:53 32.7 °F 32.2 °F 30.1 in NE 3.4 mph 5.6 mph 98 % 0 in
06:58 32.7 °F 32.2 °F 30.1 in NNE 6 mph 6 mph 98 % 0 in
07:03 32.7 °F 32.2 °F 30.1 in NE 3.8 mph 6 mph 98 % 0 in
07:08 32.7 °F 32.2 °F 30.1 in ENE 4 mph 6.3 mph 98 % 0 in
07:13 32.7 °F 32.2 °F 30.1 in NE 4.7 mph 6.3 mph 98 % 0 in
07:18 32.7 °F 32.2 °F 30.1 in NNE 5.4 mph 6.3 mph 98 % 0 in
07:23 32.7 °F 32.2 °F 30.1 in NE 4 mph 6.5 mph 98 % 0 in
07:28 32.7 °F 32.2 °F 30.1 in NE 5.8 mph 7.4 mph 98 % 0 in
07:33 32.7 °F 32.2 °F 30.1 in NE 6.3 mph 7.4 mph 98 % 0 in
07:38 32.7 °F 32.2 °F 30.1 in NNE 4.3 mph 7.2 mph 98 % 0 in
07:43 32.7 °F 32.2 °F 30.1 in North 5.8 mph 7.2 mph 98 % 0 in
07:48 32.7 °F 32.2 °F 30.1 in NNE 6.3 mph 7.6 mph 98 % 0 in
07:53 32.7 °F 32.2 °F 30.1 in NNE 5.4 mph 8.1 mph 98 % 0 in
07:58 32.7 °F 32.2 °F 30.1 in NNE 4.9 mph 8.1 mph 98 % 0 in
08:03 32.7 °F 32.2 °F 30.1 in NE 5.8 mph 7.4 mph 98 % 0 in
08:08 32.7 °F 32.2 °F 30.1 in NNE 5.4 mph 7.4 mph 98 % 0 in
08:13 32.7 °F 32.2 °F 30.1 in NE 5.4 mph 6.5 mph 98 % 0 in
08:18 32.7 °F 32.2 °F 30.1 in NE 5.8 mph 6.7 mph 98 % 0 in
08:23 32.7 °F 32.2 °F 30.1 in North 3.1 mph 6.7 mph 98 % 0 in
08:28 32.7 °F 32.2 °F 30.1 in NE 4.7 mph 7.6 mph 98 % 0 in
08:33 32.7 °F 32.2 °F 30.1 in NNE 3.4 mph 7.6 mph 98 % 0 in
08:38 32.7 °F 32.2 °F 30.1 in NNE 3.4 mph 6 mph 98 % 0 in
08:43 32.7 °F 32.2 °F 30.1 in NNE 6.5 mph 6.5 mph 98 % 0 in
08:48 32.7 °F 32.2 °F 30.1 in North 3.8 mph 6.5 mph 98 % 0 in
08:53 32.7 °F 32.2 °F 30.1 in NNE 4.7 mph 7.2 mph 98 % 0 in
08:58 32.7 °F 32.2 °F 30.1 in NNE 6 mph 7.2 mph 98 % 0 in
09:03 32.7 °F 32.2 °F 30.1 in NE 5.6 mph 6.9 mph 98 % 0 in
09:08 32.9 °F 32.4 °F 30.1 in NE 6.3 mph 6.5 mph 98 % 0 in
09:13 32.9 °F 32.4 °F 30.1 in NNE 2.9 mph 6.5 mph 98 % 0 in
09:18 32.9 °F 32.4 °F 30.1 in NNE 5.6 mph 6.3 mph 98 % 0 in
09:23 32.9 °F 32.4 °F 30.1 in NNE 4.9 mph 6 mph 98 % 0 in
09:28 33.1 °F 32.5 °F 30.1 in NE 5.8 mph 6.5 mph 98 % 0 in
09:33 33.1 °F 32.5 °F 30.1 in NE 4.3 mph 7.2 mph 98 % 0 in
09:38 33.1 °F 32.5 °F 30.1 in NE 8.7 mph 8.7 mph 98 % 0 in
09:43 33.1 °F 32.5 °F 30.1 in NNE 8.7 mph 8.7 mph 98 % 0 in
09:48 33.1 °F 32.5 °F 30.1 in NE 6.5 mph 8.7 mph 98 % 0 in
09:53 33.3 °F 32.7 °F 30.1 in NNE 6.3 mph 8.9 mph 98 % 0 in
09:58 33.3 °F 32.7 °F 30.1 in NE 7.4 mph 9.8 mph 98 % 0 in
10:03 33.3 °F 32.7 °F 30.1 in NE 6.5 mph 9.8 mph 98 % 0 in
10:08 33.3 °F 32.7 °F 30.1 in NE 7.2 mph 8.7 mph 98 % 0 in
10:13 33.3 °F 32.7 °F 30.1 in NE 5.4 mph 8.7 mph 98 % 0 in
10:18 33.3 °F 32.7 °F 30.1 in NE 6.7 mph 8.7 mph 98 % 0 in
10:23 33.4 °F 32.9 °F 30.1 in NE 6.5 mph 8.1 mph 98 % 0 in
10:28 33.4 °F 32.9 °F 30.1 in NE 6.5 mph 8.5 mph 98 % 0 in
10:33 33.4 °F 32.9 °F 30.1 in ENE 5.8 mph 8.5 mph 98 % 0 in
10:39 33.6 °F 33.1 °F 30.1 in NE 6 mph 8.5 mph 98 % 0 in
10:49 33.8 °F 33.3 °F 30.1 in NE 4.9 mph 8.1 mph 98 % 0 in
10:54 34 °F 33.4 °F 30.1 in ENE 5.8 mph 7.4 mph 98 % 0 in
10:59 33.8 °F 33.3 °F 30.1 in NE 7.4 mph 8.5 mph 98 % 0 in
11:04 34 °F 33.4 °F 30.1 in NE 7.6 mph 8.9 mph 98 % 0 in
11:09 34 °F 33.4 °F 30.1 in NE 7.8 mph 8.9 mph 98 % 0 in
11:14 34.2 °F 33.6 °F 30.1 in NNE 8.9 mph 8.9 mph 98 % 0 in
11:19 34.2 °F 33.6 °F 30.1 in NNE 5.8 mph 9.4 mph 98 % 0 in
11:24 34.3 °F 33.8 °F 30.1 in NE 7.4 mph 9.4 mph 98 % 0 in
11:29 34.3 °F 33.8 °F 30.1 in NE 7.8 mph 8.7 mph 98 % 0 in
11:34 34.5 °F 34 °F 30.1 in NNE 6 mph 8.7 mph 98 % 0 in
11:39 34.5 °F 34 °F 30.1 in NE 8.1 mph 8.9 mph 98 % 0 in
11:44 34.5 °F 33.6 °F 30.1 in NNE 8.9 mph 8.9 mph 97 % 0 in
11:49 34.9 °F 34.2 °F 30.1 in NNW 8.1 mph 8.9 mph 97 % 0 in
11:54 34.9 °F 34.2 °F 30.1 in NNE 6.3 mph 9.2 mph 97 % 0 in
11:59 34.9 °F 34.2 °F 30.1 in NE 7.4 mph 9.4 mph 97 % 0 in
12:04 34.9 °F 34.2 °F 30.1 in NNE 6.3 mph 9.4 mph 97 % 0 in
12:09 34.9 °F 34.2 °F 30.1 in North 5.8 mph 8.7 mph 97 % 0 in
12:14 34.9 °F 34.2 °F 30.1 in NE 7.6 mph 9.6 mph 97 % 0 in
12:19 35.1 °F 34.2 °F 30.1 in NNE 4.9 mph 9.6 mph 97 % 0 in
12:24 35.1 °F 34.2 °F 30.1 in NE 7.4 mph 8.7 mph 97 % 0 in
12:29 35.1 °F 34.2 °F 30.1 in NNW 6.5 mph 8.7 mph 97 % 0 in
12:34 35.1 °F 34.2 °F 30.1 in East 8.1 mph 9.2 mph 97 % 0 in
12:39 35.1 °F 34.2 °F 30.1 in NE 9.8 mph 10.1 mph 97 % 0 in
12:44 35.1 °F 34 °F 30.1 in NE 7.6 mph 12.3 mph 96 % 0 in
12:49 35.1 °F 34 °F 30.1 in NNE 6.9 mph 12.3 mph 96 % 0 in
12:54 35.1 °F 34 °F 30.1 in NE 7.4 mph 10.1 mph 96 % 0 in
12:59 35.1 °F 34 °F 30.1 in NNE 6.5 mph 10.1 mph 96 % 0 in
13:04 35.1 °F 34 °F 30.1 in North 6.3 mph 8.7 mph 96 % 0 in
13:09 35.1 °F 34 °F 30.1 in NNE 7.6 mph 8.7 mph 96 % 0 in
13:14 35.1 °F 34 °F 30.1 in NE 6 mph 8.7 mph 96 % 0 in
13:19 35.2 °F 34.2 °F 30.1 in NNE 8.7 mph 9.6 mph 96 % 0 in
13:24 35.2 °F 34.2 °F 30.1 in NE 7.6 mph 9.6 mph 96 % 0 in
13:29 35.4 °F 34.3 °F 30.1 in NE 8.1 mph 9.6 mph 96 % 0 in
13:34 35.2 °F 34.2 °F 30.1 in NE 7.6 mph 9.8 mph 96 % 0 in
13:39 35.4 °F 34.3 °F 30.1 in NE 7.8 mph 10.1 mph 96 % 0 in
13:44 35.4 °F 34.3 °F 30.1 in NE 7.6 mph 10.1 mph 96 % 0 in
13:49 35.4 °F 34.3 °F 30.1 in NNE 7.8 mph 10.7 mph 96 % 0 in
13:54 35.2 °F 34.2 °F 30.1 in NNE 8.1 mph 10.7 mph 96 % 0 in
13:59 35.1 °F 34 °F 30.1 in NNE 7.6 mph 9.8 mph 96 % 0 in
14:04 35.1 °F 34 °F 30.1 in NE 8.1 mph 10.7 mph 96 % 0 in
14:09 35.1 °F 34 °F 30.1 in NNE 7.8 mph 10.7 mph 96 % 0 in
14:14 35.1 °F 34 °F 30.1 in NE 5.4 mph 10.1 mph 96 % 0 in
14:19 35.1 °F 34 °F 30.1 in NNE 7.4 mph 10.1 mph 96 % 0 in
14:24 34.9 °F 33.8 °F 30.1 in NE 7.4 mph 9.8 mph 96 % 0 in
14:29 34.9 °F 33.8 °F 30.1 in NNE 6.3 mph 8.7 mph 96 % 0 in
14:34 34.9 °F 33.8 °F 30.1 in North 7.4 mph 8.7 mph 96 % 0 in
14:39 34.9 °F 33.8 °F 30.1 in NNE 7.6 mph 8.7 mph 96 % 0 in
14:44 34.9 °F 33.8 °F 30.1 in NE 8.5 mph 8.7 mph 96 % 0 in
14:50 34.9 °F 33.8 °F 30.1 in NNE 6 mph 8.7 mph 96 % 0 in
14:55 35.1 °F 34 °F 30.1 in NE 6.5 mph 8.1 mph 96 % 0 in
15:00 35.1 °F 34 °F 30.1 in NE 4.3 mph 7.2 mph 96 % 0 in
15:05 35.1 °F 34 °F 30.1 in NNE 7.6 mph 8.5 mph 96 % 0 in
15:10 35.1 °F 34 °F 30.1 in NE 4.3 mph 8.5 mph 96 % 0 in
15:15 35.1 °F 34 °F 30.1 in NNE 7.6 mph 8.5 mph 96 % 0 in
15:20 35.1 °F 34 °F 30.1 in NE 5.6 mph 8.5 mph 96 % 0 in
15:25 35.1 °F 34 °F 30.1 in NE 6.5 mph 8.5 mph 96 % 0 in
15:30 35.1 °F 34 °F 30.1 in NE 5.6 mph 7.8 mph 96 % 0 in
15:35 34.9 °F 33.8 °F 30.1 in NE 6.3 mph 8.1 mph 96 % 0 in
15:40 34.9 °F 33.8 °F 30.1 in North 7.2 mph 8.1 mph 96 % 0 in
15:45 34.9 °F 33.8 °F 30.1 in NNE 6 mph 8.5 mph 96 % 0 in
15:50 34.9 °F 33.8 °F 30.1 in NE 3.8 mph 8.7 mph 96 % 0 in
15:55 34.9 °F 33.8 °F 30.1 in ENE 4.7 mph 8.7 mph 96 % 0 in
16:00 34.9 °F 33.8 °F 30.1 in North 4.9 mph 8.5 mph 96 % 0 in
16:05 34.9 °F 34.2 °F 30.1 in NNE 7.2 mph 7.6 mph 97 % 0 in
16:10 34.5 °F 34 °F 30.1 in NNE 3.1 mph 8.5 mph 97 % 0 in
16:15 34.5 °F 34 °F 30.1 in NE 7.4 mph 8.5 mph 97 % 0 in
16:20 34.5 °F 34 °F 30.1 in NE 5.6 mph 8.5 mph 97 % 0 in
16:25 34.5 °F 34 °F 30.1 in NE 6.7 mph 8.9 mph 97 % 0 in
16:30 34.5 °F 34 °F 30.1 in NNE 6.5 mph 8.9 mph 97 % 0 in
16:35 34.5 °F 34 °F 30.1 in NE 5.4 mph 8.7 mph 97 % 0 in
16:40 34.5 °F 33.6 °F 30.1 in North 5.8 mph 8.5 mph 97 % 0 in
16:45 34.5 °F 33.6 °F 30.1 in NNE 7.6 mph 9.4 mph 97 % 0 in
16:50 34.5 °F 33.6 °F 30.1 in ENE 7.8 mph 9.4 mph 97 % 0 in
16:55 34.5 °F 33.6 °F 30.1 in NE 7.2 mph 8.5 mph 97 % 0 in
17:00 34.5 °F 33.6 °F 30.1 in NE 8.1 mph 8.1 mph 97 % 0 in
17:05 34.5 °F 33.6 °F 30.1 in NE 7.8 mph 8.1 mph 97 % 0 in
17:10 34.5 °F 33.6 °F 30.1 in NE 5.6 mph 8.1 mph 97 % 0 in
17:15 34.5 °F 33.6 °F 30.1 in NE 4.3 mph 8.1 mph 97 % 0 in
17:20 34.5 °F 33.6 °F 30.1 in NE 5.8 mph 8.1 mph 97 % 0 in
17:25 34.5 °F 33.6 °F 30.1 in NE 6 mph 8.1 mph 97 % 0 in
17:30 34.5 °F 33.6 °F 30.1 in NNE 5.6 mph 8.1 mph 97 % 0 in
17:35 34.5 °F 33.6 °F 30.1 in NNE 4 mph 7.6 mph 97 % 0 in
17:40 34.5 °F 33.6 °F 30.1 in NNE 6 mph 7.6 mph 97 % 0 in
17:45 34.5 °F 33.6 °F 30.1 in North 4 mph 7.4 mph 97 % 0 in
17:50 34.5 °F 33.6 °F 30.1 in NNE 6.5 mph 7.4 mph 97 % 0 in
17:55 34.3 °F 33.4 °F 30.1 in NE 6 mph 7.4 mph 97 % 0 in
18:00 34.3 °F 33.4 °F 30.1 in NE 5.8 mph 7.4 mph 97 % 0 in
18:05 34.3 °F 33.4 °F 30.1 in NE 5.8 mph 7.4 mph 97 % 0 in
18:10 34.3 °F 33.4 °F 30.1 in NE 4.3 mph 7.2 mph 97 % 0 in
18:15 34.3 °F 33.4 °F 30.1 in NE 4 mph 5.6 mph 97 % 0 in
18:20 34.3 °F 33.4 °F 30.1 in NNE 4 mph 5.8 mph 97 % 0 in
18:25 34.3 °F 33.4 °F 30.1 in NNE 3.8 mph 6.5 mph 97 % 0 in
18:31 34.3 °F 33.4 °F 30.1 in NNE 3.6 mph 6.5 mph 97 % 0 in
18:36 34.3 °F 33.4 °F 30.1 in NE 5.6 mph 7.6 mph 97 % 0 in
18:41 34.3 °F 33.4 °F 30.1 in NNE 5.4 mph 7.6 mph 97 % 0 in
18:46 34.3 °F 33.4 °F 30.1 in NE 5.4 mph 7.2 mph 97 % 0 in
18:51 34.3 °F 33.4 °F 30.1 in NE 3.6 mph 7.2 mph 97 % 0 in
18:56 34.3 °F 33.4 °F 30.1 in NE 6.3 mph 6.5 mph 97 % 0 in
19:01 34.3 °F 33.4 °F 30.1 in NNE 5.4 mph 7.2 mph 97 % 0 in
19:06 34.5 °F 33.6 °F 30.1 in NNE 6 mph 7.8 mph 97 % 0 in
19:11 34.3 °F 33.4 °F 30.1 in NE 6.5 mph 7.8 mph 97 % 0 in
19:16 34.5 °F 33.6 °F 30.1 in NE 7.4 mph 7.8 mph 97 % 0 in
19:21 34.3 °F 33.8 °F 30.1 in NNE 5.8 mph 7.4 mph 98 % 0 in
19:26 34.3 °F 33.4 °F 30.1 in NNE 5.8 mph 7.4 mph 97 % 0 in
19:31 34.3 °F 33.8 °F 30.1 in NE 3.6 mph 6.5 mph 98 % 0 in
19:36 34.3 °F 33.8 °F 30.1 in NNE 7.4 mph 7.6 mph 98 % 0 in
19:41 34.3 °F 33.4 °F 30.1 in NNE 5.4 mph 7.6 mph 97 % 0 in
19:46 34.3 °F 33.8 °F 30.1 in NE 5.4 mph 7.6 mph 98 % 0 in
19:51 34.3 °F 33.8 °F 30.1 in NE 4.9 mph 7.6 mph 98 % 0 in
19:56 34.3 °F 33.8 °F 30.1 in NNE 3.1 mph 6.5 mph 98 % 0 in
20:01 34.3 °F 33.8 °F 30.1 in NNE 4.9 mph 5.4 mph 98 % 0 in
20:06 34.3 °F 33.8 °F 30.1 in NNW 5.8 mph 6.5 mph 98 % 0 in
20:11 34.3 °F 33.8 °F 30.1 in NE 5.8 mph 6.5 mph 98 % 0 in
20:16 34.3 °F 33.8 °F 30.1 in NNE 5.6 mph 6.5 mph 98 % 0 in
20:21 34.3 °F 33.8 °F 30.1 in North 5.8 mph 6.5 mph 98 % 0 in
20:26 34.2 °F 33.6 °F 30.1 in North 3.8 mph 6.3 mph 98 % 0 in
20:31 34.2 °F 33.6 °F 30.1 in NE 4.7 mph 7.4 mph 98 % 0 in
20:36 34.2 °F 33.6 °F 30.1 in North 5.4 mph 7.4 mph 98 % 0 in
20:41 34.2 °F 33.6 °F 30.1 in NE 4.9 mph 6.5 mph 98 % 0 in
20:46 34.2 °F 33.6 °F 30.1 in NE 6.3 mph 7.6 mph 98 % 0 in
20:51 34.2 °F 33.6 °F 30.1 in NE 5.4 mph 7.6 mph 98 % 0 in
20:56 34.2 °F 33.6 °F 30.1 in ENE 5.6 mph 6.5 mph 98 % 0 in
21:01 34 °F 33.3 °F 30.1 in ENE 6.5 mph 8.5 mph 97 % 0 in
21:06 34 °F 33.3 °F 30.1 in East 5.6 mph 8.5 mph 97 % 0 in
21:11 34 °F 33.3 °F 30.1 in ENE 5.6 mph 7.6 mph 97 % 0 in
21:16 34 °F 33.3 °F 30.1 in ENE 3.1 mph 7.4 mph 97 % 0 in
21:21 34 °F 33.3 °F 30.1 in ENE 6.3 mph 7.4 mph 97 % 0 in
21:26 34 °F 33.3 °F 30.1 in NE 7.4 mph 8.9 mph 97 % 0 in
21:31 33.8 °F 32.7 °F 30.1 in NE 7.2 mph 8.9 mph 96 % 0 in
21:36 33.8 °F 32.7 °F 30.1 in NE 4 mph 8.9 mph 96 % 0 in
21:41 33.8 °F 32.7 °F 30.1 in NE 2.9 mph 8.7 mph 96 % 0 in
21:46 33.8 °F 32.7 °F 30.1 in East 5.8 mph 6.5 mph 96 % 0 in
21:51 33.8 °F 32.7 °F 30.1 in ENE 3.1 mph 7.6 mph 96 % 0 in
21:56 33.8 °F 32.7 °F 30.1 in NNE 4.9 mph 7.6 mph 96 % 0 in
22:01 33.8 °F 32.7 °F 30.1 in ENE 4.9 mph 8.1 mph 96 % 0 in
22:06 33.8 °F 32.7 °F 30.1 in North 5.6 mph 8.1 mph 96 % 0 in
22:11 33.8 °F 32.7 °F 30.1 in North 2.2 mph 5.8 mph 96 % 0 in
22:17 33.8 °F 32.7 °F 30.1 in ENE 2.9 mph 4.3 mph 96 % 0 in
22:22 33.8 °F 32.7 °F 30.1 in ENE 2.2 mph 4.3 mph 96 % 0 in
22:27 33.8 °F 32.7 °F 30.1 in Calm   3.8 mph 96 % 0 in
22:32 34 °F 32.9 °F 30.1 in Calm   2.7 mph 96 % 0 in
22:36 34 °F 32.9 °F 30.1 in Calm     96 % 0 in
22:41 34 °F 32.9 °F 30.1 in Calm     96 % 0 in
22:46 34 °F 32.9 °F 30.1 in NNW 1.3 mph 1.3 mph 96 % 0 in
22:52 34 °F 32.9 °F 30.1 in Calm   1.3 mph 96 % 0 in
22:57 34 °F 32.9 °F 30.1 in Calm   1.3 mph 96 % 0 in
23:02 34 °F 32.9 °F 30.1 in North 2.5 mph 2.5 mph 96 % 0 in
23:07 34 °F 32.9 °F 30.1 in Calm   2.5 mph 96 % 0 in
23:12 34 °F 32.9 °F 30.1 in Calm   2.5 mph 96 % 0 in
23:17 34 °F 32.9 °F 30.1 in Calm     96 % 0 in
23:22 34 °F 32.9 °F 30.1 in North 0.9 mph 2.7 mph 96 % 0 in
23:27 34 °F 32.9 °F 30.1 in Calm   2.7 mph 96 % 0 in
23:32 34 °F 32.9 °F 30.1 in Calm   2 mph 96 % 0 in
23:37 34 °F 32.9 °F 30.1 in Calm   0.9 mph 96 % 0 in
23:42 34 °F 32.9 °F 30.1 in Calm   2 mph 96 % 0 in
23:47 34 °F 32.9 °F 30.1 in Calm   2 mph 96 % 0 in
23:52 34 °F 32.9 °F 30.1 in NNE 2.2 mph 2.7 mph 96 % 0 in
23:57 34 °F 32.9 °F 30.1 in Calm   3.1 mph 96 % 0 in
Le Gheer Warneton
Courtoisie de Weather Underground - 2.5 mb

Mise a jour : 16-12-17 15:52:10
Généré par Cumulus 1.9.4 (1099)